Tracking 30970 objects as of 3-Jul-2025
HD Live streaming from Space Station
objects crossing your sky now

SL-8 R/B

Track SL-8 R/B now!
10-day predictions


NORAD ID: 11379
Int'l Code: 1979-046B
Perigee: 964.4 km
Apogee: 993.8 km
Inclination: 82.9 °
Period: 104.5 minutes
Semi major axis: 7350 km
RCS: 4.2164 m2 (large)
Launch date: May 31, 1979
Source: Commonwealth of Independent States (former USSR) (CIS)
Launch site: PLESETSK MISSILE AND SPACE COMPLEX (PKMTR)

Note: This is a ROCKET BODY
Your satellite tracking list
Your tracking list is empty




NASA's NSSDC Master Catalog

Two Line Element Set (TLE):
1 11379U 79046B   25183.83686733  .00000033  00000-0  17581-4 0  9992
2 11379  82.9447 282.9718 0020002 253.4319 226.8962 13.77723174277996
Source of the keplerian elements: AFSPC